Location: Alfords
(31.4624°N, 83.9238°W)
Time: 13:21:29
(UTC+00:00)

X-37B - Visible Passes

Search period start: 24 September 2021 00:00
Search period end: 04 October 2021 00:00
Orbit: 381 x 393 km, 45.0° (Epoch: 29 August)

Date Brightness Start Highest point End Pass type
(mag) Time Alt. Az. Time Alt. Az. Time Alt. Az.
24 Sep 4.0 09:13:02 10° NNE 09:13:02 10° NNE 09:13:04 10° NNE visible
25 Sep 3.4 09:49:38 11° N 09:49:38 11° N 09:50:09 10° N visible
29 Sep 3.6 10:47:00 10° N 10:47:13 10° NNE 10:47:25 10° NNE visible
01 Oct 3.3 10:25:35 10° NNW 10:27:22 14° NNE 10:29:10 10° NE visible
02 Oct 1.8 11:02:57 10° NW 11:05:56 39° NNE 11:08:56 10° ESE visible
03 Oct 2.8 10:06:03 17° N 10:07:26 22° NNE 10:09:58 10° E visible
